Showing default

TIROS 5, 309

Orbit data source: Space-Track

TIROS 5, 309 is a payload satellite owned by GSFC (US) in LEO that was launched on Tue, 19 Jun 1962 UTC via a THOR DELTA launch vehicle from the Air Force Eastern Test Range (AFETR). Payload-class satellites include a variety of spacecraft equipped with specific instruments for various scientific and technological missions. These include communications satellites like Starlink; space stations such as the ISS; scientific satellites like the Hubble; Earth observation satellites from companies like Planet Labs, Umbra, and HawkEye 360; GPS; miniature CubeSats for education and research; and military/defense satellites.

Loading next visibility...
Identifier
309, 1962-025A
Orbit
LEO
Country
Flag of USUS
Related business
Manufacturer
RCA/East Windsor
Mission
Non-operational spacecraft
Bus & Motor
TIROS, Unknown motor
Mass
129 kg wet, 129 kg dry
Launch date (UTC)
1962-06-19 (63 years ago)
Launch vehicle
THOR DELTA
Launch site
Air Force Eastern Test Range (AFETR)
Object type
Payload
Rocket body
Debris
Shape & HBR
Unknown
Radar Cross Section
Medium (>0.1 m² and <1 m²)

Expand to show TLE details & history
Last TLE update: 14 hours ago

TLE from 14 hours ago
0 TIROS 5
1   309U 62025A   25302.53290484  .00000998  00000-0  19844-3 0  9999
2   309  58.0919 347.4470 0179524 309.3069  49.2158 14.60256295348131
Epoch: 2025-10-29T12:47Z
TLE epoch observation values (Epoch: 2025-10-29T12:47:22.978Z)
Latitude
-0.00002°
Longitude
117.49656°
Altitude
612.132 km
Speed
7.597 km/s
True Right ascension
23h 09m 47s
True Declination
0° 00' 00"
Sunlit
Object was in full shadow at epoch
Visualization orbit readout
Latitude
Unknown
Longitude
Unknown
Altitude
Unknown
Speed
Unknown
Apparent Right ascension
Unknown
Apparent Declination
Unknown
Sunlit
N/A
Visualization observer readout
Local Sidereal Time
22:22:22
Azimuth
Unknown
Elevation
Unknown
Doppler factor
Unknown
Orbital elements
Apogee altitude
818.77 km
Perigee altitude
564.923 km
Semi-major axis
7,069.984 km
Eccentricity
0.01795
Inclination
58.0919°
RAAN
347.447°
Arg. of periapsis
309.3069°
True anomaly
50.79641°
Mean anomaly
49.2158°
Eccentric anomaly
50.00379°
Mean motion
3.65103 °/min
Orbital period
98.6 mins
BSTAR
0.00019844
Loading maneuver chart data...
Computing Atmospheric mass density...
Loading historical data...
Loading historical data...
Loading historical data...
Loading historical data...
Loading historical data...
Loading historical data...
Loading historical data...

Documentation

Showing up to 5 results
|